Regional Weather Roundup
Issued by NWS

Home | Current Version | Previous Version | Graphics & Text | Print | Product List | Glossary On
Versions: 1 2 3 4 5 6 7 8 9 10 11 12 13 14 15 16 17 18 19 20 21 22 23 24 25 26 27 28 29 30 31 32 33 34 35 36 37 38 39 40 41 42 43 44 45 46 47 48 49 50
000
ASUS43 KLMK 280202
RWRKY
KENTUCKY REGIONAL WEATHER ROUNDUP
NATIONAL WEATHER SERVICE LOUISVILLE KY
1000 PM EDT THU AUG 27 2015

NOTE "FAIR" INDICATES FEW OR NO CLOUDS BELOW 12,000 FEET
WITH NO SIGNIFICANT WEATHER AND/OR OBSTRUCTIONS TO VISIBILITY.

KYZ001>023-026-027-061>063-070>075-280300-
WESTERN AND SOUTH CENTRAL KENTUCKY

CITY           SKY/WX    TMP DP  RH WIND       PRES   REMARKS
PADUCAH        CLEAR     64  59  83 CALM      30.08S
HENDERSON      CLEAR     64  57  77 CALM      30.09R
OWENSBORO      CLEAR     70  59  68 E5        30.11R
HOPKINSVILLE   CLEAR     66  58  75 NE6       30.10R
BOWLING GREEN  PTCLDY    68  57  68 NE5       30.12R
GLASGOW        CLEAR     65  56  72 N5        30.13R
$$

KYZ024-025-028>034-038-045-046-053-280300-
NORTH CENTRAL KENTUCKY

CITY           SKY/WX    TMP DP  RH WIND       PRES   REMARKS
LOUISVILLE/SDF PTCLDY    71  56  58 E7        30.12S
LOUISVILLE/LOU CLEAR     71  56  58 E5        30.14R
FORT KNOX      CLEAR     66  57  73 NE3       30.12R
$$

KYZ035>037-039>044-047>052-055>060-089>105-280300-
NORTHEAST KENTUCKY

CITY           SKY/WX    TMP DP  RH WIND       PRES   REMARKS
LEXINGTON      CLEAR     66  55  67 E6        30.16R
COVINGTON      CLEAR     64  56  75 CALM      30.16R
FRANKFORT      CLEAR     65  56  72 E3        30.15R
$$

KYZ054-064>069-076>088-106>120-280300-
SOUTHEAST KENTUCKY

CITY           SKY/WX    TMP DP  RH WIND       PRES   REMARKS
JACKSON        CLEAR     65  55  70 CALM      30.18R
LONDON         CLEAR     66  54  65 NE3       30.16R
SOMERSET       NOT AVBL
MIDDLESBORO    PTCLDY    65  62  89 CALM      30.15R
MONTICELLO     CLEAR     62  59  90 CALM      30.17R
$$




USA.gov is the U.S. government's official web portal to all federal, state and local government web resources and services.